CZ-6A DEB

Satellite information

Favourite Embed

Satellite Type and Status

DEBRISIN ORBIT

Key statistics

Satellite CZ-6A DEB at a glance.

Uptime

969

Days in orbit

Revolutions

≈ 13.9

Per day

Orbit

SSO

Sun Synchronous Orbit

Inclination

98.9

Latest

Satellite identification and parameters

Extended collection of information and parameters for CZ-6A DEB.

Object identification

Identified? True

Debris? True

Object name: CZ-6A DEB

International designator: 2022-151PA

Object number (NORAD): 54624

Object ID (CCSDS): 54624

Country: PEOPLES REPUBLIC OF CHINA (PRC)

Current information (Y/N): Y

RCS size: SMALL

Orbital parameters

Period: 103.256 minutes

Inclination: 98.8955 deg

SMA: 7290.731 km

Apoapsis: 1003.036 km

Periapsis: 822.156 km

RAAN: 169.2382 deg

Eccentricy: 0.0124048

Argument of periapsis: 317.9108 deg

Mean anomaly: 41.2576 deg

Mean motion: 13.94588844 rev/day

Mean motion (dot): 0.00000269 rev/day2

B* drag term: 0.00021934 1/REarth

Two-line elements (TLE)

Creation date: July 6, 2025, 11:06 p.m.

Reference frame: TEME

Reference center: EARTH

Epoch: July 6, 2025, 9:06 p.m. UTC

TLE line 0: 0 CZ-6A DEB

TLE line 1: 1 54624U 22151PA 25187.87958848 .00000269 00000-0 21934-3 0 9991

TLE line 2: 2 54624 98.8955 169.2382 0124048 317.9108 41.2576 13.94588844133608

Live tracking on map

Real-time ground track for satellite CZ-6A DEB.

In-orbit conjunctions

A list of the most updated potential collisions computed for object CZ-6A DEB.

Target Orbit TCA Probability of collision Miss distance Type
NOAA 16 DEB SSO 2025-03-10 11:27:54 0.0001682908 417.0 (m) DEBRIS

Associated space launch

Chinese satellite reported for atmospheric/ocean/environmental/spatial parameter research purposes, details TBD.

CZ-6A DEB was lifted into orbit during the mission ‘Long March 6A | Yunhai 3’, on board a Long March 6A space rocket.

The launch took place on Nov. 11, 2022, 10:52 p.m. from Launch Complex 9A.

For more information about the launch, click the button.

Launch to space Long March 6A | Yunhai 3
Long March 6A | Yunhai 3

Agency: N/A

Status: Launch Successful

Launch date: Nov. 11, 2022, 10:52 p.m. UTC

Rocket: Long March 6A

Launch pad: Launch Complex 9A

Location: Taiyuan Satellite Launch Center, People's Republic of China

...

Latest news about this satellite

There are no fresh news available about this satellite. Check back as we update our databases every day.


Newsletter sign-up

Weekly statistics, charts and insights to help you stay on top of the space industry.